OKEAN-0
1 25860U 99039A 11110.92718843 .00000323 00000-0 56877-4 0 03031
2 25860 097.8785 078.9674 0001320 100.6408 259.4949 14.73759079632222
NOAA-16
1 26536U 00055A 11110.56324060 .00000269 00000-0 17014-3 0 02673
2 26536 099.1442 139.9218 0010567 190.2588 169.8380 14.12611064545227
NOAA-17
1 27453U 02032A 11110.71056806 .00000281 00000-0 13982-3 0 02625
2 27453 098.3849 153.0437 0011101 321.5880 038.4495 14.24261563458473
NOAA-18
1 28654U 05018A 11110.75222943 .00000119 00000-0 90605-4 0 07428
2 28654 098.9915 061.7737 0013520 267.7004 092.2606 14.11463091304828
NOAA-19
1 33591U 09005A 11111.72946520 .00000341 00000-0 18896-3 0 9347
2 33591 098.8234 052.8427 0014610 133.2113 227.0768 14.11156389113423
HUBBLE
1 20580U 90037B 11109.15405170 .00001367 00000-0 91050-4 0 7498
2 20580 028.4696 042.0585 0003663 211.8262 148.2086 15.01292820950773
ISS
1 25544U 98067A 11112.04999834 .00030536 00000-0 21498-3 0 2304
2 25544 051.6447 089.0426 0003168 126.4628 348.0957 15.73827119712061
CO-58
1 28895U 05043F 11110.70605244 .00000462 00000-0 10535-3 0 8534
2 28895 097.9739 349.2920 0018577 044.5747 315.6960 14.60068709291852
FALCON
1 30776U 07006E 11110.90916346 .00003054 00000-0 21691-3 0 00768
2 30776 035.4345 335.2119 0002475 312.4836 047.5664 15.04444410226412
MAST
1 31126U 07012K 11111.66474208 .00000395 00000-0 99304-4 0 1397
2 31126 097.9012 142.0736 0094586 347.4626 012.4222 14.53723452212879
CAPE1
1 31130U 07012P 11110.63367311 .00000285 00000-0 75850-4 0 1561
2 31130 097.9032 137.9555 0103341 000.9166 359.2211 14.52354781212287
COMPASS
1 32787U 08021E 11110.63329417 .00001434 00000-0 18567-3 0 09674
2 32787 097.8527 175.5119 0015906 008.2195 351.9266 14.82315308161030
AAUSAT2
1 32788U 08021F 11111.68401492 .00001808 00000-0 23138-3 0 9568
2 32788 097.8516 176.7478 0015358 005.2640 354.8801 14.82496219161200
DO-64
1 32789U 08021G 11110.69824258 .00002447 00000-0 30791-3 0 09730
2 32789 097.8613 176.6794 0015311 007.2480 352.8924 14.82888456161068
CO-66
1 32791U 08021J 11111.65100447 .00000821 00000-0 10988-3 0 9580
2 32791 097.8526 176.4683 0016280 003.8582 356.2762 14.82026676161134
RS-30
1 32953U 08025A 11111.72478821 .00000010 00000-0 00000 0 0 6594
2 32953 082.5037 197.8178 0019878 147.0076 213.2252 12.43011998132076
TACSAT-3
1 35001U 09028A 11110.58464180 .00018641 00000-0 35881-3 0 5701
2 35001 040.4525 162.1405 0021450 141.1860 219.0502 15.47148613108157
PHARMSAT
1 35002U 09028B 11110.54138145 .00016316 00000-0 31541-3 0 5297
2 35002 040.4700 159.9326 0023876 147.7962 212.4319 15.47031453108176
HAWKSAT1
1 35003U 09028C 11110.49944008 .00058897 00000-0 73734-3 0 5891
2 35003 040.4546 138.9755 0021592 172.0230 188.0941 15.58574021108400
CP6
1 35004U 09028D 11111.29478027 .00077048 00000-0 82190-3 0 5945
2 35004 040.4534 128.0970 0022670 185.2426 174.8300 15.62598171108586
METEOR-M
1 35865U 09049A 11111.71353852 .00000176 00000-0 10000-3 0 3002
2 35865 098.7119 167.5593 0002007 174.8127 185.3026 14.21837014 82566
RS-38
1 35869U 09049E 11111.72046957 .00000177 00000-0 10000-3 0 3058
2 35869 098.7089 167.6044 0004202 184.5055 175.6063 14.22007428 82578
